Showing default

METEOR M2-4, 59051

Orbit data source: Space-Track

METEOR M2-4, 59051 is a Commonwealth of Independent States-origin payload satellite in SSO that was launched on Thu, 29 Feb 2024 UTC via a SOYUZ-2-1B launch vehicle from the Vostochny Cosmodrome (VOSTO). Payload-class satellites include a variety of spacecraft equipped with specific instruments for various scientific and technological missions. These include communications satellites like Starlink; space stations such as the ISS; scientific satellites like the Hubble; Earth observation satellites from companies like Planet Labs, Umbra, and HawkEye 360; GPS; miniature CubeSats for education and research; and military/defense satellites.

Loading next visibility...
Identifier
59051, 2024-039A
Orbit
SSO
Country
Flag of CISCIS
Related business
Manufacturer
VNIIEM
Mission
Operational Civil Weather
Bus & Motor
RESURS-O, Unknown motor
Mass
3,200 kg wet, ~3,000 kg dry
Launch date (UTC)
2024-02-29 (2 years ago)
Launch vehicle
SOYUZ-2-1B
Launch site
Vostochny Cosmodrome (VOSTO)
Object type
Payload
Rocket body
Debris
Shape & HBR
Cyl + 2 Pan, 7.0 m
Radar Cross Section
26.744 m², Large (>1 m²)

Expand to show TLE details & history
Last TLE update: 4 hours ago

TLE from 4 hours ago
0 METEOR M2-4
1 59051U 24039A   26168.88685377  .00000010  00000-0  23925-4 0  9999
2 59051  98.7010 128.1761 0007332 159.0156 201.1324 14.22429617119366
Epoch: 2026-06-17T21:17Z
TLE epoch observation values (Epoch: 2026-06-17T21:17:04.165Z)
Latitude
-0.00004°
Longitude
-97.22934°
Altitude
824.988 km
Speed
7.438 km/s
True Right ascension
08h 32m 42s
True Declination
0° 00' 00"
Sunlit
Object was in daylight at epoch
Visualization orbit readout
Latitude
Unknown
Longitude
Unknown
Altitude
Unknown
Speed
Unknown
Apparent Right ascension
Unknown
Apparent Declination
Unknown
Sunlit
N/A
Visualization observer readout
Local Sidereal Time
12:16:21
Azimuth
Unknown
Elevation
Unknown
Doppler factor
Unknown
Orbital elements
Apogee altitude
819.576 km
Perigee altitude
809.029 km
Semi-major axis
7,192.44 km
Eccentricity
0.00073
Inclination
98.701°
RAAN
128.1761°
Arg. of periapsis
159.0156°
True anomaly
201.10214°
Mean anomaly
201.1324°
Eccentric anomaly
201.11726°
Mean motion
3.55819 °/min
Orbital period
101.18 mins
BSTAR
0.000023925
Loading maneuver chart data...
Computing Atmospheric mass density...
Loading historical data...
Loading historical data...
Loading historical data...
Loading historical data...
Loading historical data...
Loading historical data...
Loading historical data...

Documentation

Showing up to 5 results
|